When you browse on this site, cookies collect data to enhance your experience and personalize the content and advertising you see.
Visit our Privacy Policy to learn more. By continuing to use the site, you agree to this use of cookies and data.
  • In United Kingdom
  • List of Countries
  • For 7 days
  • Water Temperature
  • Weather Map
  • Weather Widgets
  • user-avatar
    Login

    Hourly Weather Debowola

    Today, 30 March, Monday

    Time Temperature Precipitation Wind Pressure Humidity
    00:00 -3°C° 0.1 mm 7 mps 754 mmHg 82%
    01:00 -3°C° 0 mm 6 mps 755 mmHg 74%
    02:00 -4°C° 0 mm 6 mps 755 mmHg 69%
    03:00 -4°C° 0 mm 6 mps 755 mmHg 64%
    04:00 -5°C° 0 mm 6 mps 755 mmHg 59%
    05:00 -4°C° 0 mm 6 mps 756 mmHg 56%
    06:00 -4°C° 0 mm 6 mps 756 mmHg 53%
    07:00 -4°C° 0 mm 6 mps 756 mmHg 51%
    08:00 -3°C° 0 mm 6 mps 756 mmHg 46%
    09:00 -2°C° 0 mm 6 mps 756 mmHg 41%
    10:00 0°C° 0 mm 5 mps 756 mmHg 36%
    11:00 +1°C° 0 mm 5 mps 756 mmHg 36%
    12:00 +1°C° 0 mm 6 mps 756 mmHg 36%
    13:00 +2°C° 0 mm 6 mps 756 mmHg 36%
    14:00 +2°C° 0.2 mm 5 mps 755 mmHg 40%
    15:00 +2°C° 0.2 mm 5 mps 755 mmHg 44%
    16:00 +2°C° 0.2 mm 5 mps 755 mmHg 48%
    17:00 +1°C° 0.1 mm 4 mps 755 mmHg 53%
    18:00 0°C° 0.1 mm 4 mps 756 mmHg 57%
    19:00 +1°C° 0.1 mm 3 mps 756 mmHg 62%
    20:00 +1°C° 0 mm 2 mps 756 mmHg 65%
    21:00 +1°C° 0 mm 2 mps 756 mmHg 67%
    22:00 -1°C° 0 mm 2 mps 756 mmHg 69%
    23:00 -1°C° 0 mm 2 mps 756 mmHg 70%

    Tomorrow, 31 March, Tuesday

    Time Temperature Precipitation Wind Pressure Humidity
    00:00 0°C° 0 mm 1 mps 757 mmHg 71%
    01:00 0°C° 0 mm 1 mps 757 mmHg 71%
    02:00 0°C° 0 mm 1 mps 757 mmHg 71%
    03:00 0°C° 0 mm 1 mps 757 mmHg 71%
    04:00 -1°C° 0 mm 0 mps 757 mmHg 71%
    05:00 -1°C° 0 mm 0 mps 758 mmHg 67%
    06:00 0°C° 0 mm 0 mps 758 mmHg 63%
    07:00 +1°C° 0 mm 0 mps 758 mmHg 59%
    08:00 +2°C° 0 mm 0 mps 758 mmHg 54%
    09:00 +5°C° 0 mm 1 mps 759 mmHg 49%
    10:00 +6°C° 0 mm 1 mps 759 mmHg 44%
    11:00 +6°C° 0.2 mm 1 mps 759 mmHg 43%
    12:00 +6°C° 0.2 mm 2 mps 758 mmHg 42%
    13:00 +5°C° 0.2 mm 3 mps 758 mmHg 42%
    14:00 +5°C° 0.2 mm 3 mps 758 mmHg 43%
    15:00 +5°C° 0.2 mm 3 mps 758 mmHg 45%
    16:00 +4°C° 0.2 mm 4 mps 758 mmHg 47%
    17:00 +3°C° 0.1 mm 3 mps 758 mmHg 50%
    18:00 +3°C° 0.1 mm 2 mps 758 mmHg 53%
    19:00 +1°C° 0.1 mm 2 mps 758 mmHg 56%
    20:00 +1°C° 0 mm 2 mps 758 mmHg 60%
    21:00 -1°C° 0 mm 2 mps 758 mmHg 63%
    22:00 -1°C° 0 mm 3 mps 758 mmHg 66%
    23:00 -1°C° 0 mm 3 mps 758 mmHg 71%

    Day after tomorrow, 1 April, Wednesday

    Time Temperature Precipitation Wind Pressure Humidity
    00:00 -2°C° 0 mm 3 mps 758 mmHg 76%
    01:00 -2°C° 0 mm 3 mps 758 mmHg 82%
    02:00 -2°C° 0 mm 3 mps 757 mmHg 82%
    03:00 -2°C° 0 mm 3 mps 757 mmHg 83%
    04:00 -2°C° 0 mm 3 mps 757 mmHg 83%
    05:00 -2°C° 0 mm 4 mps 757 mmHg 76%
    06:00 -2°C° 0 mm 5 mps 756 mmHg 68%
    07:00 -2°C° 0 mm 6 mps 756 mmHg 61%
    08:00 -1°C° 0 mm 6 mps 756 mmHg 55%
    09:00 +2°C° 0 mm 6 mps 755 mmHg 49%
    10:00 +3°C° 0 mm 7 mps 755 mmHg 44%
    11:00 +4°C° 0 mm 7 mps 754 mmHg 43%
    12:00 +5°C° 0 mm 7 mps 754 mmHg 42%
    13:00 +5°C° 0 mm 7 mps 754 mmHg 41%
    14:00 +5°C° 0 mm 7 mps 753 mmHg 44%
    15:00 +5°C° 0 mm 7 mps 752 mmHg 46%
    16:00 +5°C° 0 mm 7 mps 752 mmHg 48%
    17:00 +4°C° 0 mm 6 mps 752 mmHg 54%
    18:00 +2°C° 0 mm 5 mps 752 mmHg 60%
    19:00 +1°C° 0 mm 4 mps 752 mmHg 66%
    20:00 +1°C° 0 mm 4 mps 751 mmHg 67%
    21:00 +1°C° 0 mm 4 mps 751 mmHg 69%
    22:00 0°C° 0 mm 5 mps 751 mmHg 70%
    23:00 0°C° 0 mm 5 mps 751 mmHg 71%

    2 April, Thursday

    Time Temperature Precipitation Wind Pressure Humidity
    00:00 0°C° 0 mm 5 mps 750 mmHg 73%
    01:00 0°C° 0 mm 5 mps 750 mmHg 74%
    02:00 -1°C° 0 mm 5 mps 750 mmHg 75%
    03:00 -1°C° 0 mm 5 mps 749 mmHg 77%
    04:00 -1°C° 0 mm 5 mps 749 mmHg 79%
    05:00 -1°C° 0 mm 6 mps 749 mmHg 78%
    06:00 +1°C° 0 mm 6 mps 749 mmHg 78%
    07:00 0°C° 0 mm 7 mps 749 mmHg 77%
    08:00 +2°C° 0 mm 7 mps 749 mmHg 71%
    09:00 +3°C° 0 mm 7 mps 749 mmHg 65%
    10:00 +4°C° 0 mm 7 mps 749 mmHg 58%
    11:00 +5°C° 0 mm 7 mps 749 mmHg 58%
    12:00 +5°C° 0 mm 7 mps 749 mmHg 58%
    13:00 +5°C° 0 mm 7 mps 749 mmHg 59%
    14:00 +5°C° 0 mm 6 mps 748 mmHg 59%
    15:00 +5°C° 0 mm 6 mps 748 mmHg 60%
    16:00 +6°C° 0 mm 5 mps 747 mmHg 60%
    17:00 +5°C° 0 mm 5 mps 747 mmHg 62%
    18:00 +5°C° 0 mm 4 mps 747 mmHg 64%
    19:00 +4°C° 0 mm 3 mps 747 mmHg 66%
    20:00 +4°C° 0 mm 3 mps 747 mmHg 68%
    21:00 +4°C° 0 mm 3 mps 747 mmHg 70%
    22:00 +3°C° 0 mm 4 mps 746 mmHg 72%
    23:00 +3°C° 0 mm 4 mps 746 mmHg 72%

    3 April, Friday

    Time Temperature Precipitation Wind Pressure Humidity
    00:00 +3°C° 0 mm 4 mps 746 mmHg 73%
    01:00 +1°C° 0 mm 4 mps 745 mmHg 73%
    02:00 +1°C° 0 mm 5 mps 745 mmHg 74%
    03:00 +1°C° 0 mm 5 mps 744 mmHg 74%
    04:00 +1°C° 0 mm 5 mps 743 mmHg 75%
    05:00 +2°C° 0 mm 6 mps 743 mmHg 71%
    06:00 +3°C° 0 mm 7 mps 743 mmHg 68%
    07:00 +4°C° 0 mm 7 mps 743 mmHg 64%
    08:00 +4°C° 0 mm 8 mps 744 mmHg 69%
    09:00 +2°C° 0 mm 8 mps 744 mmHg 74%
    10:00 +2°C° 0 mm 9 mps 744 mmHg 79%
    11:00 +5°C° 0 mm 9 mps 745 mmHg 65%
    12:00 +6°C° 0 mm 9 mps 745 mmHg 51%
    13:00 +8°C° 0 mm 9 mps 746 mmHg 37%
    14:00 +7°C° 0.1 mm 9 mps 746 mmHg 39%
    15:00 +7°C° 0.1 mm 9 mps 746 mmHg 42%
    16:00 +6°C° 0.1 mm 8 mps 746 mmHg 44%
    17:00 +5°C° 0.2 mm 7 mps 747 mmHg 51%
    18:00 +4°C° 0.2 mm 6 mps 748 mmHg 57%
    19:00 +3°C° 0.2 mm 5 mps 749 mmHg 64%
    20:00 +2°C° 0 mm 6 mps 749 mmHg 61%
    21:00 +1°C° 0 mm 6 mps 750 mmHg 57%
    22:00 -1°C° 0 mm 6 mps 751 mmHg 54%
    23:00 -1°C° 0 mm 6 mps 752 mmHg 57%

    4 April, Saturday

    Time Temperature Precipitation Wind Pressure Humidity
    00:00 -1°C° 0 mm 5 mps 753 mmHg 61%
    01:00 -1°C° 0 mm 5 mps 754 mmHg 64%
    02:00 -2°C° 0 mm 5 mps 755 mmHg 66%
    03:00 -2°C° 0 mm 4 mps 755 mmHg 69%
    04:00 -3°C° 0 mm 4 mps 756 mmHg 71%
    05:00 -2°C° 0 mm 4 mps 757 mmHg 66%
    06:00 -1°C° 0 mm 4 mps 758 mmHg 60%
    07:00 0°C° 0 mm 4 mps 759 mmHg 55%
    08:00 +2°C° 0 mm 5 mps 759 mmHg 49%
    09:00 +3°C° 0 mm 5 mps 759 mmHg 43%
    10:00 +6°C° 0 mm 5 mps 759 mmHg 37%
    11:00 +7°C° 0 mm 5 mps 760 mmHg 39%
    12:00 +7°C° 0 mm 5 mps 760 mmHg 40%
    13:00 +8°C° 0 mm 5 mps 760 mmHg 42%
    14:00 +8°C° 0 mm 5 mps 760 mmHg 42%
    15:00 +7°C° 0 mm 5 mps 760 mmHg 43%
    16:00 +7°C° 0 mm 5 mps 760 mmHg 44%
    17:00 +6°C° 0 mm 4 mps 761 mmHg 49%
    18:00 +4°C° 0 mm 3 mps 762 mmHg 54%
    19:00 +4°C° 0 mm 2 mps 762 mmHg 59%
    20:00 +3°C° 0 mm 2 mps 763 mmHg 63%
    21:00 +3°C° 0 mm 2 mps 763 mmHg 67%
    22:00 +3°C° 0 mm 1 mps 764 mmHg 71%
    23:00 +3°C° 0 mm 1 mps 764 mmHg 73%
    Show more